[[{"header":{"parameterUnit":"m.s-1","parameterCategory":2,"la1":30.2991,"la2":30.254,"lo1":-89.0895,"lo2":-89.0444,"dy":0.0017,"dx":0.0017,"nx":28,"ny":28,"refTime":"2024-05-20T03:00:00:Z","depth":"0","parameterNumber":2,"parameterNumberName":"U-component_of_CURRENTS"},"data":[0,0,0,0,0,0,0,0,0,0,0,0,0,0,0,0,0,0,0,0,0,0,0,0,0,0,0,0,0,0,0,0,0,0,0,0,0,0,0,0,0,0,0,0,0,0,0,0,0,0,0,0,0,0,0,0,0,0,-0.3137,-0.3137,0,-0.3117,-0.3117,-0.3116,-0.3085,-0.3085,-0.3084,-0.3084,-0.3021,-0.302,-0.3018,0,0,0,0,0,0,0,0,0,0,0,0,0,-0.3097,-0.3098,-0.3137,-0.3137,-0.3137,-0.3118,-0.3117,-0.3116,-0.3085,-0.3085,-0.3084,-0.3084,-0.3022,-0.302,-0.3018,0,0,0,0,0,0,0,0,0,0,0,0,0,-0.3096,-0.3098,-0.3137,-0.3122,-0.312,-0.3118,-0.3117,-0.3116,-0.3085,-0.3085,-0.3084,-0.3084,-0.3022,-0.302,-0.3018,-0.3012,0,0,-0.3011,-0.301,0,0,0,0,0,0,0,0,-0.3097,-0.3097,-0.3124,-0.3123,-0.3121,-0.3107,-0.308,-0.308,-0.3085,-0.3095,-0.3084,-0.3084,-0.3048,-0.3044,-0.3037,-0.3009,-0.3006,-0.3011,-0.301,-0.3009,-0.3008,0,0,0,0,0,0,0,-0.3097,-0.3098,-0.3125,-0.3124,-0.3123,-0.3099,-0.3099,-0.308,-0.307,-0.3094,-0.3092,-0.3096,-0.3047,-0.3039,-0.3035,-0.3005,-0.3011,-0.3009,-0.3008,-0.3007,-0.2852,-0.2849,0,0,0,0,0,0,-0.311,-0.3098,-0.3126,-0.3125,-0.3112,-0.3101,-0.31,-0.3109,-0.3071,-0.3067,-0.3097,-0.3095,-0.3043,-0.3037,-0.3032,-0.2946,-0.3009,-0.3007,-0.3006,-0.2855,-0.2851,-0.2848,0,0,0,0,0,0,-0.3109,-0.3113,-0.3127,-0.3114,-0.3114,-0.3103,-0.3112,-0.3109,-0.3103,-0.3075,-0.3068,-0.3096,-0.3042,-0.3036,-0.2991,-0.2946,-0.3006,-0.3004,-0.2858,-0.2854,-0.285,-0.2821,0,0,0,0,0,0,-0.3108,-0.3113,-0.3108,-0.3115,-0.3116,-0.3085,-0.3113,-0.3109,-0.3108,-0.3105,-0.3072,-0.3065,-0.3041,-0.2994,-0.2988,-0.2944,-0.3002,-0.2862,-0.2856,-0.2851,-0.2826,-0.2817,-0.2809,0,0,0,0,0,-0.3107,-0.3067,-0.3108,-0.3111,-0.3115,-0.3083,-0.3078,-0.3068,-0.3109,-0.3071,-0.3064,-0.3066,-0.2955,-0.2991,-0.2985,-0.2939,-0.2864,-0.2858,-0.2852,-0.283,-0.2818,-0.2809,0,0,0,0,0,0,-0.301,-0.3062,-0.3105,-0.3078,-0.3079,-0.3078,-0.3033,-0.3076,-0.3047,-0.3044,-0.3048,-0.3038,-0.2968,-0.2961,-0.3,-0.2872,-0.2903,-0.2896,-0.2888,-0.2878,-0.2869,-0.2865,-0.3,0,0,0,0,0,-0.3006,-0.3005,-0.3046,-0.3017,-0.3017,-0.3047,-0.3036,-0.3045,-0.3033,-0.3021,-0.3004,-0.2976,-0.2937,-0.2918,-0.2865,-0.2822,-0.284,-0.2779,-0.2771,-0.2764,-0.2752,-0.2752,-0.2744,-0.2828,-0.2828,-0.2828,0,0,-0.2958,-0.2986,-0.2983,-0.3,-0.2998,-0.2982,-0.3034,-0.3,-0.2986,-0.3018,-0.2958,-0.2941,-0.2915,-0.2839,-0.2809,-0.2834,-0.275,-0.2756,-0.2751,-0.2742,-0.2745,-0.2738,-0.2731,-0.2823,-0.2824,-0.2825,0,0,-0.2843,-0.2889,-0.2852,-0.2865,-0.2878,-0.2904,-0.2907,-0.2914,-0.2902,-0.2874,-0.2878,-0.2843,-0.2793,-0.2755,-0.2741,-0.266,-0.2697,-0.2638,-0.2606,-0.2607,-0.2602,-0.2597,-0.2626,-0.2624,-0.2646,-0.2645,-0.2645,0,-0.2774,-0.278,-0.2823,-0.2797,-0.2817,-0.2879,-0.2858,-0.2844,-0.2833,-0.2833,-0.2833,-0.2778,-0.2747,-0.2699,-0.265,-0.2642,-0.2666,-0.2658,-0.2601,-0.2597,-0.2592,-0.2623,-0.2622,-0.2643,-0.2644,-0.2644,-0.2644,0,-0.2644,-0.2673,-0.2636,-0.2666,-0.2673,-0.2655,-0.269,-0.2676,-0.271,-0.2724,-0.2677,-0.2644,-0.2627,-0.2596,-0.2598,-0.2544,-0.2579,-0.2589,-0.2642,-0.2583,-0.2618,-0.2617,-0.264,-0.2641,-0.2642,-0.2642,0,0,-0.2454,-0.2537,-0.2535,-0.2582,-0.2629,-0.2627,-0.2603,-0.262,-0.2639,-0.2597,-0.2615,-0.2518,-0.2542,-0.2523,-0.2522,-0.2508,-0.2492,-0.2533,-0.2534,-0.2587,-0.2524,-0.2616,-0.2625,-0.2509,-0.2508,-0.2507,-0.2569,0,-0.2355,-0.2341,-0.2405,-0.2416,-0.2439,-0.2519,-0.2512,-0.2533,-0.2561,-0.2571,-0.2553,-0.2539,-0.2505,-0.2515,-0.2488,-0.2502,-0.2485,-0.2476,-0.2549,-0.2551,-0.2661,-0.2624,-0.2391,-0.2432,-0.2568,-0.2568,-0.2568,0,-0.2235,-0.2269,-0.227,-0.2398,-0.2406,-0.2409,-0.2485,-0.2482,-0.2514,-0.2537,-0.2536,-0.2547,-0.2514,-0.2502,-0.2482,-0.2489,-0.2482,-0.2487,-0.2491,-0.2584,-0.2641,-0.2504,-0.2425,-0.2216,-0.2567,-0.2567,-0.2567,0,-0.2147,-0.2199,-0.2226,-0.2254,-0.2355,-0.2368,-0.2412,-0.2463,-0.2488,-0.2522,-0.2563,-0.2542,-0.2555,-0.253,-0.2528,-0.2512,-0.2538,-0.2529,-0.2599,-0.2608,-0.2424,-0.2419,-0.2167,-0.2488,-0.2488,-0.2488,-0.2488,0,-0.2072,-0.2097,-0.219,-0.2203,-0.2239,-0.2321,-0.236,-0.2399,-0.2472,-0.2518,-0.2535,-0.2573,-0.2559,-0.2583,-0.2557,-0.2599,-0.2562,-0.2588,-0.2622,-0.241,-0.2403,-0.223,-0.222,-0.249,-0.249,-0.2489,-0.2489,0,-0.199,-0.2051,-0.2083,-0.2171,-0.2206,-0.2219,-0.2338,-0.2382,-0.2444,-0.2516,-0.2529,-0.26,-0.265,-0.2657,-0.2659,-0.2661,-0.2598,-0.2687,-0.2465,-0.2474,-0.2383,-0.2384,-0.2386,-0.2346,-0.2786,-0.2789,-0.2791,0,-0.1957,-0.1963,-0.2036,-0.2067,-0.2107,-0.2167,-0.2238,-0.2342,-0.241,-0.2532,-0.2572,-0.2649,-0.2691,-0.2769,-0.2771,-0.2787,-0.2662,-0.2613,-0.2528,-0.2342,-0.2366,-0.2413,-0.238,-0.2262,-0.2259,-0.2258,-0.2256,0,-0.1885,-0.1895,-0.1922,-0.1976,-0.2042,-0.2127,-0.223,-0.2279,-0.2419,-0.248,-0.2561,-0.2595,-0.2708,-0.264,-0.272,-0.2691,-0.2476,-0.2586,-0.2384,-0.1941,-0.1974,-0.1962,-0.2296,-0.2239,-0.224,-0.2242,-0.2243,-0.2243,-0.1818,-0.1804,-0.1833,-0.1877,-0.1971,-0.2057,-0.2084,-0.222,-0.2294,-0.2363,-0.2473,-0.245,-0.2389,-0.2476,-0.2474,-0.2245,-0.2464,-0.2082,-0.2106,-0.2176,-0.2101,-0.2463,-0.2473,-0.2476,-0.2478,-0.248,-0.2482,0,-0.1731,-0.1723,-0.1754,-0.1803,-0.187,-0.1947,-0.2072,-0.2088,-0.2143,-0.2212,-0.225,-0.2054,-0.1952,-0.1874,-0.1707,-0.1653,-0.1635,-0.1601,-0.1437,-0.1438,-0.1663,-0.159,-0.1415,-0.1415,-0.1416,-0.1416,-0.1416,-0.1416,-0.168,-0.1649,-0.1653,-0.1687,-0.1741,-0.1775,-0.1811,-0.1854,-0.1882,-0.1786,-0.1664,-0.1631,-0.1401,-0.1234,-0.1002,-0.1013,-0.0952,-0.1047,-0.1168,-0.1077,-0.1116,-0.1153,-0.1066,-0.0785,-0.0785,-0.0767,-0.0766,-0.0766]},{"header":{"parameterUnit":"m.s-1","parameterCategory":2,"la1":30.2991,"la2":30.254,"lo1":-89.0895,"lo2":-89.0444,"dy":0.0017,"dx":0.0017,"nx":28,"ny":28,"refTime":"2024-05-20T03:00:00:Z","depth":"0","parameterNumber":3,"parameterNumberName":"V-component_of_CURRENTS"},"data":[0,0,0,0,0,0,0,0,0,0,0,0,0,0,0,0,0,0,0,0,0,0,0,0,0,0,0,0,0,0,0,0,0,0,0,0,0,0,0,0,0,0,0,0,0,0,0,0,0,0,0,0,0,0,0,0,0,0,-0.0331,-0.0331,0,-0.0243,-0.0242,-0.024,-0.0219,-0.022,-0.0221,-0.0222,-0.0134,-0.013,-0.0127,0,0,0,0,0,0,0,0,0,0,0,0,0,-0.0346,-0.0346,-0.0332,-0.0331,-0.033,-0.0243,-0.0242,-0.024,-0.0219,-0.022,-0.0221,-0.0222,-0.0135,-0.0131,-0.0127,0,0,0,0,0,0,0,0,0,0,0,0,0,-0.0303,-0.0346,-0.0332,-0.0312,-0.031,-0.0244,-0.0242,-0.024,-0.0218,-0.022,-0.0221,-0.0223,-0.0136,-0.0131,-0.0126,-0.0066,0,0,-0.0111,-0.0109,0,0,0,0,0,0,0,0,-0.0306,-0.0302,-0.0316,-0.0314,-0.0311,-0.0248,-0.0215,-0.0183,-0.0218,-0.0248,-0.0222,-0.0224,-0.0174,-0.0166,-0.0139,-0.0062,-0.0058,-0.0111,-0.0108,-0.0106,-0.0104,0,0,0,0,0,0,0,-0.0309,-0.0305,-0.0292,-0.0315,-0.0312,-0.0262,-0.0258,-0.0208,-0.02,-0.0246,-0.0245,-0.0242,-0.0172,-0.0144,-0.0137,-0.0057,-0.0111,-0.0107,-0.0104,-0.0102,0.0098,0.01,0,0,0,0,0,0,-0.0334,-0.0309,-0.0295,-0.029,-0.0317,-0.0261,-0.0257,-0.0263,-0.0201,-0.0194,-0.0241,-0.0242,-0.0152,-0.0143,-0.0134,-0.007,-0.0106,-0.0101,-0.0098,0.0095,0.0098,0.0101,0,0,0,0,0,0,-0.0335,-0.0334,-0.0299,-0.03,-0.0293,-0.0261,-0.0267,-0.026,-0.0235,-0.0198,-0.0191,-0.0224,-0.0153,-0.0141,-0.0072,-0.0066,-0.0099,-0.0095,0.0093,0.0096,0.0099,0.0065,0,0,0,0,0,0,-0.0336,-0.0335,-0.0337,-0.0302,-0.0294,-0.0252,-0.0265,-0.0258,-0.0233,-0.0233,-0.018,-0.0174,-0.0153,-0.0079,-0.0067,-0.006,-0.0091,0.009,0.0094,0.0098,0.0063,0.0067,0.007,0,0,0,0,0,-0.0337,-0.0328,-0.0338,-0.0335,-0.0302,-0.0251,-0.024,-0.0219,-0.0231,-0.0205,-0.0167,-0.0175,-0.0043,-0.0072,-0.0059,-0.0051,0.0087,0.0093,0.0098,0.0062,0.0066,0.007,0,0,0,0,0,0,-0.032,-0.0324,-0.0334,-0.0325,-0.0292,-0.0249,-0.0225,-0.0215,-0.0163,-0.0167,-0.0138,-0.0126,-0.0066,-0.0036,-0.007,0.0026,0.0019,0.0027,-0.0013,-0.0009,-0.0005,-0.0048,-0.0087,0,0,0,0,0,-0.0324,-0.0327,-0.031,-0.0298,-0.0289,-0.0258,-0.0235,-0.0222,-0.018,-0.016,-0.0122,-0.0077,-0.0029,-0.0004,0.0048,0.0106,0.0097,0.0123,0.0126,0.0129,0.0108,0.0121,0.0122,0.0118,0.0118,0.0118,0,0,-0.0312,-0.0316,-0.0316,-0.0296,-0.0274,-0.0256,-0.0246,-0.021,-0.0199,-0.0156,-0.0112,-0.006,-0.0007,0.0053,0.0081,0.0073,0.0127,0.0135,0.0136,0.0114,0.0126,0.0126,0.0125,0.0122,0.0121,0.0121,0,0,-0.0294,-0.0298,-0.0299,-0.0282,-0.026,-0.0239,-0.0233,-0.0188,-0.0173,-0.0113,-0.0089,-0.003,0.0052,0.0084,0.0109,0.0171,0.0147,0.0192,0.0168,0.0181,0.018,0.0178,0.0155,0.0152,0.019,0.019,0.019,0,-0.0282,-0.0298,-0.0281,-0.0279,-0.0277,-0.024,-0.0238,-0.0202,-0.0138,-0.0127,-0.0104,0.0009,0.006,0.0105,0.0129,0.0171,0.0161,0.0137,0.0179,0.0178,0.0177,0.0153,0.015,0.0189,0.0189,0.0189,0.0189,0,-0.0275,-0.0287,-0.0279,-0.0286,-0.0264,-0.0249,-0.0223,-0.0195,-0.0171,-0.0136,-0.0075,0.0009,0.0063,0.0102,0.0134,0.016,0.0149,0.0177,0.0149,0.0173,0.0149,0.0146,0.0187,0.0188,0.0188,0.0188,0,0,-0.0261,-0.0279,-0.028,-0.0308,-0.0281,-0.027,-0.0249,-0.0225,-0.0228,-0.0142,-0.0133,-0.0024,0.0016,0.0048,0.0101,0.0125,0.0122,0.0143,0.0145,0.0085,0.0115,0.0098,0.0093,0.015,0.0149,0.0149,0.0094,0,-0.0271,-0.0304,-0.0295,-0.0316,-0.0337,-0.0313,-0.0303,-0.0272,-0.0229,-0.0196,-0.0118,-0.0068,-0.0005,0.0022,0.0057,0.0116,0.0115,0.0132,0.0131,0.013,0.0084,0.009,0.0171,0.0128,0.0091,0.0091,0.009,0,-0.0281,-0.0311,-0.0348,-0.0388,-0.0393,-0.0385,-0.0395,-0.0379,-0.032,-0.0287,-0.0224,-0.0154,-0.009,-0.0041,0.0027,0.0031,0.0058,0.0096,0.0096,0.0083,0.0108,0.0106,0.0124,0.0301,0.0086,0.0086,0.0086,0,-0.0325,-0.0354,-0.0403,-0.0411,-0.0428,-0.0441,-0.0442,-0.0403,-0.0407,-0.0344,-0.0329,-0.0236,-0.0198,-0.0133,-0.0046,-0.0012,0.0003,0.0063,0.0058,0.0055,0.0125,0.0129,0.0284,0.0073,0.0073,0.0073,0.0074,0,-0.0363,-0.0399,-0.0431,-0.046,-0.0515,-0.0499,-0.0534,-0.0517,-0.0488,-0.0495,-0.0382,-0.0376,-0.0219,-0.0177,-0.0096,-0.0044,-0.0043,0.0034,0.0042,0.0117,0.0121,0.0279,0.0315,0.0071,0.0072,0.0072,0.0073,0,-0.04,-0.0424,-0.0488,-0.0527,-0.0542,-0.0581,-0.0611,-0.0637,-0.0593,-0.0602,-0.0587,-0.0488,-0.0438,-0.032,-0.0224,-0.0124,0.0008,-0.0059,-0.0003,0.0014,0.021,0.0239,0.0257,0.032,-0.0048,-0.0048,-0.0049,0,-0.0417,-0.0458,-0.0543,-0.0598,-0.0616,-0.067,-0.0713,-0.0696,-0.0716,-0.0684,-0.0698,-0.0641,-0.0629,-0.0501,-0.0302,-0.0188,-0.0075,-0.0042,0.0056,0.0214,0.0254,0.025,0.0303,0.0133,0.0134,0.0134,0.0135,0,-0.045,-0.0489,-0.0551,-0.067,-0.0737,-0.081,-0.0857,-0.0889,-0.0872,-0.0887,-0.09,-0.0889,-0.0729,-0.0548,-0.0369,-0.0251,0.008,-0.0025,0.0153,0.0403,0.0395,0.0463,0.0146,0.0142,0.0141,0.0141,0.014,0.014,-0.047,-0.0535,-0.0637,-0.0743,-0.0839,-0.0933,-0.0995,-0.1051,-0.1113,-0.1131,-0.1089,-0.1007,-0.0683,-0.0407,-0.0282,0.0164,0.0072,0.0333,0.0347,0.0323,0.0416,0.0077,0.0077,0.0076,0.0075,0.0075,0.0074,0,-0.0502,-0.0589,-0.0702,-0.0848,-0.0969,-0.0989,-0.1087,-0.1149,-0.1252,-0.1211,-0.1241,-0.0783,-0.0524,-0.013,0.0398,0.0578,0.0636,0.0677,0.0764,0.0797,0.0543,0.0593,0.069,0.069,0.069,0.069,0.0689,0.0689,-0.0528,-0.0647,-0.0718,-0.0926,-0.1026,-0.1165,-0.1221,-0.1315,-0.1292,-0.1167,-0.0862,-0.0592,0.0088,0.0532,0.0988,0.1028,0.116,0.1079,0.1116,0.1054,0.1027,0.1001,0.1066,0.126,0.1261,0.143,0.1432,0.1433]}],[{"header":{"parameterUnit":"m.s-1","parameterCategory":2,"la1":30.2991,"la2":30.254,"lo1":-89.0895,"lo2":-89.0444,"dy":0.0017,"dx":0.0017,"nx":28,"ny":28,"refTime":"2024-05-20T03:00:00:Z","depth":"2","parameterNumber":2,"parameterNumberName":"U-component_of_CURRENTS"},"data":[0,0,0,0,0,0,0,0,0,0,0,0,0,0,0,0,0,0,0,0,0,0,0,0,0,0,0,0,0,0,0,0,0,0,0,0,0,0,0,0,0,0,0,0,0,0,0,0,0,0,0,0,0,0,0,0,0,0,-0.1975,-0.1975,0,-0.1991,-0.1991,-0.1992,-0.1965,-0.1963,-0.1962,-0.1961,-0.1839,-0.1836,-0.1834,0,0,0,0,0,0,0,0,0,0,0,0,0,-0.2014,-0.2013,-0.1975,-0.1975,-0.1975,-0.1991,-0.1991,-0.1992,-0.1965,-0.1963,-0.1962,-0.1961,-0.1839,-0.1837,-0.1834,0,0,0,0,0,0,0,0,0,0,0,0,0,-0.2013,-0.2013,-0.1975,-0.1962,-0.196,-0.1991,-0.1992,-0.1992,-0.1965,-0.1963,-0.1962,-0.196,-0.184,-0.1837,-0.1834,-0.1849,0,0,-0.1824,-0.1822,0,0,0,0,0,0,0,0,-0.2013,-0.2012,-0.1964,-0.1963,-0.1961,-0.1972,-0.196,-0.1936,-0.1966,-0.1966,-0.1961,-0.1959,-0.187,-0.1864,-0.1877,-0.1843,-0.1838,-0.1824,-0.1822,-0.182,-0.1819,0,0,0,0,0,0,0,-0.2013,-0.2012,-0.1984,-0.1964,-0.1962,-0.1986,-0.1983,-0.1957,-0.1927,-0.1966,-0.1963,-0.1961,-0.1868,-0.188,-0.1873,-0.1836,-0.1824,-0.1821,-0.1819,-0.1817,-0.185,-0.1852,0,0,0,0,0,0,-0.2002,-0.2011,-0.1984,-0.1985,-0.198,-0.1986,-0.1983,-0.1972,-0.193,-0.1923,-0.1963,-0.196,-0.1887,-0.1877,-0.1869,-0.187,-0.182,-0.1817,-0.1815,-0.1847,-0.185,-0.1853,0,0,0,0,0,0,-0.2003,-0.2,-0.1983,-0.1997,-0.1996,-0.1986,-0.1975,-0.1973,-0.2005,-0.1929,-0.1919,-0.1997,-0.1885,-0.1873,-0.1884,-0.1865,-0.1816,-0.1813,-0.1843,-0.1848,-0.1852,-0.1881,0,0,0,0,0,0,-0.2004,-0.2,-0.2015,-0.1996,-0.1994,-0.2015,-0.1976,-0.1975,-0.2004,-0.2001,-0.1955,-0.1941,-0.1883,-0.189,-0.1881,-0.186,-0.181,-0.184,-0.1845,-0.185,-0.1877,-0.1886,-0.1894,0,0,0,0,0,-0.2005,-0.2031,-0.2015,-0.2013,-0.2006,-0.2016,-0.2019,-0.2009,-0.2008,-0.2031,-0.2017,-0.1943,-0.1916,-0.1891,-0.1879,-0.1856,-0.1837,-0.1844,-0.185,-0.1873,-0.1884,-0.1894,0,0,0,0,0,0,-0.2078,-0.203,-0.2012,-0.2027,-0.2025,-0.201,-0.2029,-0.2036,-0.205,-0.2045,-0.1986,-0.1973,-0.1967,-0.1941,-0.1915,-0.1892,-0.1862,-0.1866,-0.1883,-0.1893,-0.1902,-0.1826,-0.1807,0,0,0,0,0,-0.2094,-0.2081,-0.2057,-0.2071,-0.2064,-0.2058,-0.2071,-0.2066,-0.2062,-0.2068,-0.2041,-0.2016,-0.1986,-0.1966,-0.1942,-0.194,-0.1888,-0.1923,-0.1931,-0.1938,-0.1877,-0.1816,-0.181,-0.1874,-0.1874,-0.1874,0,0,-0.2119,-0.2098,-0.2089,-0.2084,-0.2071,-0.2055,-0.2061,-0.208,-0.2068,-0.205,-0.2046,-0.2046,-0.2,-0.1986,-0.1979,-0.1957,-0.1915,-0.1946,-0.1951,-0.1884,-0.1821,-0.1813,-0.1807,-0.1878,-0.1877,-0.1877,0,0,-0.2132,-0.2144,-0.2114,-0.2117,-0.2106,-0.2095,-0.2109,-0.2111,-0.2111,-0.213,-0.21,-0.209,-0.2082,-0.2014,-0.1983,-0.2032,-0.1967,-0.2061,-0.2021,-0.1965,-0.1956,-0.1948,-0.1945,-0.1936,-0.2057,-0.2057,-0.2057,0,-0.2148,-0.212,-0.2121,-0.21,-0.209,-0.2109,-0.2083,-0.2093,-0.2109,-0.2095,-0.2128,-0.2092,-0.2062,-0.1986,-0.2007,-0.2031,-0.2029,-0.1976,-0.1967,-0.1957,-0.1947,-0.1946,-0.1935,-0.2059,-0.2059,-0.2059,-0.2058,0,-0.211,-0.2114,-0.2108,-0.2056,-0.2062,-0.2062,-0.205,-0.2067,-0.2087,-0.2081,-0.2064,-0.2057,-0.2016,-0.203,-0.2024,-0.1955,-0.1991,-0.1986,-0.192,-0.1941,-0.1942,-0.193,-0.2062,-0.2062,-0.2061,-0.206,0,0,-0.2036,-0.2063,-0.2056,-0.2045,-0.2041,-0.2035,-0.2016,-0.1984,-0.1963,-0.1998,-0.1959,-0.1932,-0.1951,-0.1918,-0.1927,-0.1881,-0.1849,-0.1917,-0.1914,-0.1877,-0.1782,-0.1759,-0.1744,-0.1861,-0.1858,-0.1855,-0.1833,0,-0.198,-0.1962,-0.1973,-0.1949,-0.1937,-0.1949,-0.193,-0.192,-0.1927,-0.1915,-0.1893,-0.1881,-0.1903,-0.1912,-0.1864,-0.1857,-0.181,-0.1857,-0.1795,-0.1792,-0.1736,-0.1724,-0.154,-0.1498,-0.182,-0.1818,-0.1817,0,-0.1907,-0.1908,-0.1889,-0.1902,-0.1888,-0.1877,-0.1839,-0.1831,-0.181,-0.1823,-0.1798,-0.1814,-0.1759,-0.1794,-0.1719,-0.177,-0.1756,-0.1747,-0.1746,-0.1677,-0.1742,-0.1519,-0.1463,-0.1796,-0.1797,-0.1799,-0.18,0,-0.1853,-0.1845,-0.1836,-0.1839,-0.1848,-0.1826,-0.1819,-0.18,-0.1781,-0.1771,-0.177,-0.1726,-0.1725,-0.1679,-0.1696,-0.171,-0.1635,-0.1644,-0.1597,-0.16,-0.1392,-0.138,-0.1537,-0.1537,-0.1537,-0.1537,-0.1537,0,-0.1802,-0.1785,-0.1819,-0.1816,-0.1767,-0.1801,-0.1751,-0.1741,-0.1736,-0.1698,-0.1729,-0.1691,-0.1697,-0.1681,-0.1671,-0.1613,-0.161,-0.1549,-0.156,-0.1413,-0.1404,-0.1607,-0.1615,-0.1536,-0.1536,-0.1536,-0.1536,0,-0.1746,-0.1785,-0.1756,-0.176,-0.1753,-0.172,-0.1702,-0.1678,-0.1699,-0.1653,-0.1656,-0.1662,-0.1649,-0.1669,-0.1619,-0.158,-0.153,-0.1508,-0.1373,-0.1365,-0.154,-0.1552,-0.1409,-0.1408,-0.1406,-0.1405,-0.1404,0,-0.1718,-0.1713,-0.1694,-0.1672,-0.1667,-0.164,-0.162,-0.1641,-0.1617,-0.1613,-0.1579,-0.1592,-0.1547,-0.1512,-0.1446,-0.1407,-0.1507,-0.124,-0.1175,-0.1485,-0.1512,-0.1526,-0.1539,-0.0955,-0.0951,-0.0947,-0.0944,0,-0.1625,-0.1626,-0.1601,-0.1567,-0.1543,-0.1515,-0.1498,-0.147,-0.1495,-0.148,-0.1439,-0.1411,-0.1361,-0.1224,-0.122,-0.117,-0.1232,-0.116,-0.1465,-0.103,-0.1058,-0.1086,-0.1112,-0.091,-0.0914,-0.0916,-0.0918,-0.0919,-0.1522,-0.1481,-0.1467,-0.1418,-0.1411,-0.1389,-0.1324,-0.1329,-0.129,-0.1246,-0.1296,-0.1203,-0.1121,-0.0983,-0.0945,-0.0918,-0.0988,-0.0929,-0.0939,-0.0954,-0.0919,-0.0943,-0.0771,-0.0773,-0.0775,-0.0777,-0.0779,0,-0.1371,-0.1354,-0.1318,-0.1272,-0.1242,-0.128,-0.123,-0.114,-0.106,-0.1102,-0.1081,-0.0874,-0.0763,-0.0741,-0.0589,-0.0559,-0.0543,-0.0582,-0.054,-0.0569,-0.0597,-0.0545,-0.0298,-0.0297,-0.0297,-0.0297,0,0,-0.1286,-0.1208,-0.1202,-0.1111,-0.1102,-0.1008,-0.0958,-0.0845,-0.081,-0.0755,-0.0723,-0.0782,-0.0685,-0.0504,-0.0447,-0.0364,-0.0493,-0.0349,-0.0715,-0.0695,-0.0724,-0.0752,-0.07,0,0,0,0,0]},{"header":{"parameterUnit":"m.s-1","parameterCategory":2,"la1":30.2991,"la2":30.254,"lo1":-89.0895,"lo2":-89.0444,"dy":0.0017,"dx":0.0017,"nx":28,"ny":28,"refTime":"2024-05-20T03:00:00:Z","depth":"2","parameterNumber":3,"parameterNumberName":"V-component_of_CURRENTS"},"data":[0,0,0,0,0,0,0,0,0,0,0,0,0,0,0,0,0,0,0,0,0,0,0,0,0,0,0,0,0,0,0,0,0,0,0,0,0,0,0,0,0,0,0,0,0,0,0,0,0,0,0,0,0,0,0,0,0,0,0.006,0.0061,0,0.0174,0.0176,0.0177,0.0247,0.0247,0.0248,0.0248,0.0386,0.0389,0.0393,0,0,0,0,0,0,0,0,0,0,0,0,0,-0.0011,-0.0011,0.006,0.0061,0.0063,0.0174,0.0176,0.0177,0.0247,0.0247,0.0248,0.0248,0.0385,0.0389,0.0393,0,0,0,0,0,0,0,0,0,0,0,0,0,0.0054,-0.0011,0.006,0.011,0.0115,0.0174,0.0176,0.0178,0.0247,0.0247,0.0248,0.0248,0.0384,0.0389,0.0394,0.0419,0,0,0.041,0.0412,0,0,0,0,0,0,0,0,0.005,0.0057,0.0101,0.0106,0.0113,0.0195,0.0201,0.0259,0.0247,0.0199,0.0248,0.0248,0.0323,0.0333,0.0356,0.0426,0.0432,0.041,0.0413,0.0416,0.0417,0,0,0,0,0,0,0,0.0045,0.0053,0.0107,0.0102,0.0109,0.0156,0.0165,0.0213,0.0259,0.0203,0.0208,0.0218,0.0327,0.0351,0.036,0.0434,0.041,0.0415,0.0418,0.042,0.0486,0.0485,0,0,0,0,0,0,0.0023,0.0048,0.0103,0.011,0.008,0.0156,0.0167,0.017,0.0258,0.0272,0.0218,0.0221,0.0342,0.0354,0.0365,0.0382,0.0415,0.042,0.0423,0.0487,0.0486,0.0484,0,0,0,0,0,0,0.0021,0.0027,0.0098,0.0081,0.0093,0.0156,0.016,0.0172,0.0182,0.0269,0.0283,0.0214,0.0342,0.0358,0.039,0.0388,0.0423,0.0427,0.0489,0.0487,0.0485,0.0427,0,0,0,0,0,0,0.0019,0.0025,0.001,0.0079,0.0093,0.0115,0.016,0.0174,0.0188,0.0193,0.0271,0.0285,0.0344,0.0381,0.0395,0.0396,0.0431,0.0491,0.0488,0.0485,0.043,0.0423,0.0417,0,0,0,0,0,0.0016,-0.0017,0.0008,0.0014,0.0072,0.0114,0.0125,0.0174,0.0187,0.0185,0.0234,0.0282,0.0374,0.0384,0.0401,0.0403,0.0492,0.0489,0.0486,0.0434,0.0424,0.0417,0,0,0,0,0,0,-0.0062,-0.0011,0.0018,0.0001,0.005,0.0125,0.0121,0.0156,0.0194,0.0193,0.0272,0.029,0.031,0.0356,0.0365,0.0409,0.0438,0.0437,0.0392,0.0384,0.0378,0.0409,0.0436,0,0,0,0,0,-0.0085,-0.0089,-0.0026,-0.0035,-0.0022,0.0047,0.0064,0.0101,0.0149,0.0166,0.0223,0.0273,0.0312,0.0346,0.0382,0.0418,0.0483,0.0424,0.0417,0.0411,0.0444,0.0558,0.0567,0.0474,0.0474,0.0474,0,0,-0.0111,-0.0087,-0.0087,-0.005,-0.0012,0.0013,0.0057,0.0075,0.0105,0.0174,0.0212,0.0244,0.0308,0.0342,0.0357,0.0384,0.0452,0.0407,0.0402,0.0439,0.0557,0.0566,0.0575,0.0472,0.0472,0.0473,0,0,-0.016,-0.0152,-0.0164,-0.0135,-0.009,-0.0037,-0.0041,0.0025,0.0056,0.0094,0.0144,0.0185,0.0242,0.0309,0.0345,0.0323,0.0398,0.0308,0.0328,0.0437,0.0447,0.0457,0.0481,0.0495,0.0324,0.0324,0.0324,0,-0.0196,-0.0194,-0.0161,-0.0162,-0.0133,-0.0066,-0.0054,-0.0012,0.0059,0.0103,0.0091,0.0207,0.0241,0.0332,0.0311,0.0316,0.036,0.0357,0.0433,0.0445,0.0457,0.048,0.0496,0.0321,0.0321,0.0321,0.0322,0,-0.0241,-0.0237,-0.0248,-0.021,-0.0179,-0.0166,-0.0094,-0.0061,-0.0019,0.005,0.0121,0.0177,0.0262,0.0257,0.0277,0.0369,0.0361,0.0399,0.0465,0.0464,0.0486,0.0503,0.0316,0.0317,0.0318,0.0319,0,0,-0.0309,-0.0281,-0.0282,-0.026,-0.0203,-0.0174,-0.0129,-0.0037,0.0021,0.0075,0.0167,0.0213,0.026,0.0302,0.0337,0.0426,0.0495,0.0439,0.0446,0.0479,0.0681,0.0611,0.0622,0.0555,0.0559,0.0563,0.0639,0,-0.0341,-0.0353,-0.0317,-0.0291,-0.0278,-0.02,-0.0152,-0.0065,0.002,0.0118,0.0207,0.0281,0.0274,0.0304,0.0394,0.0477,0.0549,0.0467,0.0665,0.067,0.0625,0.0645,0.057,0.0629,0.0656,0.0659,0.0661,0,-0.0384,-0.0379,-0.0377,-0.0306,-0.0292,-0.0268,-0.0148,-0.0096,0.0058,0.0122,0.0237,0.0314,0.0429,0.0422,0.0602,0.0548,0.0608,0.0671,0.0677,0.0663,0.0635,0.0648,0.066,0.0691,0.0689,0.0686,0.0684,0,-0.043,-0.0406,-0.04,-0.0386,-0.031,-0.0285,-0.0236,-0.0099,-0.0029,0.013,0.0201,0.0365,0.0425,0.0568,0.0647,0.0645,0.0838,0.0861,0.0856,0.0848,0.0853,0.0839,0.1013,0.1013,0.1012,0.1012,0.1012,0,-0.0466,-0.0455,-0.0433,-0.0432,-0.0404,-0.034,-0.0273,-0.0191,-0.0054,0.0036,0.0185,0.0266,0.047,0.0591,0.0683,0.0795,0.0866,0.0874,0.089,0.0815,0.0798,0.0923,0.0912,0.1015,0.1014,0.1014,0.1013,0,-0.05,-0.0493,-0.0483,-0.0441,-0.043,-0.0416,-0.0329,-0.0263,-0.0148,-0.0025,0.0019,0.0211,0.0348,0.0525,0.0734,0.0808,0.0944,0.0961,0.0804,0.0802,0.087,0.0854,0.1006,0.1005,0.1004,0.1003,0.1002,0,-0.0512,-0.052,-0.0509,-0.0513,-0.0501,-0.0475,-0.044,-0.0328,-0.0248,-0.0083,-0.0022,0.0135,0.0236,0.0491,0.0669,0.0846,0.0885,0.0871,0.0879,0.0882,0.0883,0.0869,0.0855,0.083,0.0828,0.0826,0.0825,0,-0.052,-0.053,-0.0526,-0.0552,-0.0545,-0.0509,-0.046,-0.0414,-0.0278,-0.02,-0.0107,-0.003,0.0199,0.0369,0.0599,0.0692,0.0847,0.084,0.0952,0.0826,0.072,0.0718,0.071,0.081,0.0811,0.0812,0.0813,0.0814,-0.0517,-0.0534,-0.0552,-0.0568,-0.0565,-0.0537,-0.0513,-0.0449,-0.0376,-0.023,-0.0179,-0.0029,0.0154,0.0481,0.0571,0.0687,0.0741,0.0794,0.0799,0.0806,0.0755,0.0652,0.0715,0.0716,0.0717,0.0718,0.0718,0,-0.0493,-0.0528,-0.0557,-0.0566,-0.0563,-0.0564,-0.0504,-0.0469,-0.0423,-0.0271,-0.0188,0.0012,0.0211,0.0394,0.0544,0.0638,0.0645,0.0642,0.0643,0.0656,0.0669,0.0611,0.0533,0.0533,0.0533,0.0533,0,0,-0.048,-0.051,-0.0539,-0.0552,-0.0568,-0.0553,-0.0534,-0.0505,-0.0397,-0.0303,-0.0154,0.0106,0.0287,0.0387,0.0458,0.0489,0.0549,0.0479,0.0615,0.0615,0.0626,0.0738,0.0662,0,0,0,0,0]}],[{"header":{"parameterUnit":"m.s-1","parameterCategory":2,"la1":30.2991,"la2":30.254,"lo1":-89.0895,"lo2":-89.0444,"dy":0.0017,"dx":0.0017,"nx":28,"ny":28,"refTime":"2024-05-20T03:00:00:Z","depth":"4","parameterNumber":2,"parameterNumberName":"U-component_of_CURRENTS"},"data":[0,0,0,0,0,0,0,0,0,0,0,0,0,0,0,0,0,0,0,0,0,0,0,0,0,0,0,0,0,0,0,0,0,0,0,0,0,0,0,0,0,0,0,0,0,0,0,0,0,0,0,0,0,0,0,0,0,0,-0.054,-0.054,0,-0.0543,-0.0543,-0.0543,-0.0539,-0.0539,-0.0539,-0.0539,-0.0633,-0.0636,-0.0638,0,0,0,0,0,0,0,0,0,0,0,0,0,-0.0492,-0.0493,-0.054,-0.054,-0.054,-0.0543,-0.0543,-0.0543,-0.0539,-0.0539,-0.0539,-0.0539,-0.0633,-0.0635,-0.0638,0,0,0,0,0,0,0,0,0,0,0,0,0,-0.0504,-0.0494,-0.054,-0.054,-0.054,-0.0543,-0.0543,-0.0543,-0.0539,-0.0539,-0.0539,-0.0539,-0.0632,-0.0635,-0.0639,-0.0661,0,0,-0.065,-0.0652,0,0,0,0,0,0,0,0,-0.0504,-0.0506,-0.054,-0.054,-0.0541,-0.0542,-0.0561,-0.0587,-0.0539,-0.0538,-0.0539,-0.0539,-0.0613,-0.0618,-0.0614,-0.0665,-0.0669,-0.065,-0.0653,-0.0654,-0.0655,0,0,0,0,0,0,0,-0.0503,-0.0506,-0.0539,-0.054,-0.0541,-0.0527,-0.0529,-0.0565,-0.0575,-0.0538,-0.0538,-0.0541,-0.0613,-0.0611,-0.0617,-0.067,-0.065,-0.0654,-0.0656,-0.0657,-0.083,-0.0832,0,0,0,0,0,0,-0.0508,-0.0505,-0.0539,-0.054,-0.0524,-0.0528,-0.053,-0.054,-0.0573,-0.0577,-0.0541,-0.0541,-0.0604,-0.0612,-0.062,-0.0723,-0.0654,-0.0658,-0.066,-0.0828,-0.083,-0.0833,0,0,0,0,0,0,-0.0508,-0.0512,-0.0539,-0.0523,-0.0526,-0.053,-0.054,-0.054,-0.0543,-0.0575,-0.0581,-0.0545,-0.0605,-0.0615,-0.0675,-0.0724,-0.0659,-0.0663,-0.0825,-0.0828,-0.0832,-0.0881,0,0,0,0,0,0,-0.0506,-0.0511,-0.0519,-0.0524,-0.0527,-0.0547,-0.0541,-0.054,-0.0545,-0.0545,-0.058,-0.0588,-0.0605,-0.0669,-0.0678,-0.0728,-0.0666,-0.0822,-0.0826,-0.0831,-0.0876,-0.0885,-0.0893,0,0,0,0,0,-0.0505,-0.0504,-0.0519,-0.0523,-0.0538,-0.0548,-0.0548,-0.0549,-0.0546,-0.055,-0.0586,-0.0587,-0.0704,-0.0674,-0.0684,-0.0736,-0.082,-0.0825,-0.083,-0.0872,-0.0884,-0.0893,0,0,0,0,0,0,-0.0482,-0.0504,-0.0521,-0.0528,-0.0546,-0.0548,-0.0542,-0.0552,-0.0579,-0.0584,-0.0611,-0.0623,-0.069,-0.0709,-0.0674,-0.08,-0.0765,-0.0773,-0.0793,-0.0804,-0.0813,-0.0824,-0.0669,0,0,0,0,0,-0.0485,-0.0493,-0.0518,-0.0525,-0.0529,-0.054,-0.0543,-0.0554,-0.0577,-0.0587,-0.0624,-0.067,-0.0719,-0.0756,-0.0792,-0.0863,-0.0829,-0.0906,-0.0915,-0.0922,-0.094,-0.0907,-0.0913,-0.085,-0.085,-0.085,0,0,-0.0484,-0.0491,-0.0501,-0.0521,-0.0525,-0.0542,-0.0541,-0.0549,-0.0586,-0.0597,-0.0658,-0.0693,-0.074,-0.0816,-0.0851,-0.0842,-0.0922,-0.0929,-0.0934,-0.0949,-0.0913,-0.0919,-0.0924,-0.0854,-0.0853,-0.0853,0,0,-0.0471,-0.0485,-0.049,-0.0497,-0.0515,-0.0537,-0.0544,-0.0572,-0.0605,-0.0673,-0.0692,-0.075,-0.0835,-0.0876,-0.0908,-0.0986,-0.0956,-0.1018,-0.1089,-0.1057,-0.1061,-0.1064,-0.1014,-0.1013,-0.1038,-0.1038,-0.1038,0,-0.0469,-0.0477,-0.0492,-0.0488,-0.0501,-0.0537,-0.0553,-0.0592,-0.0649,-0.0684,-0.0703,-0.0815,-0.0859,-0.0938,-0.1001,-0.1003,-0.0982,-0.104,-0.1064,-0.1067,-0.1069,-0.1017,-0.1015,-0.1041,-0.1041,-0.104,-0.104,0,-0.0466,-0.0465,-0.0458,-0.0483,-0.0506,-0.0516,-0.058,-0.0627,-0.0683,-0.0727,-0.0817,-0.0881,-0.0947,-0.0989,-0.1043,-0.1107,-0.1082,-0.1059,-0.1027,-0.1077,-0.1021,-0.1017,-0.1045,-0.1044,-0.1043,-0.1043,0,0,-0.0478,-0.0464,-0.0462,-0.0463,-0.0503,-0.0521,-0.0594,-0.0668,-0.071,-0.0796,-0.0847,-0.0982,-0.1015,-0.1057,-0.111,-0.1137,-0.1154,-0.1149,-0.1146,-0.1082,-0.1081,-0.1028,-0.1017,-0.1139,-0.114,-0.114,-0.1028,0,-0.0474,-0.0456,-0.0473,-0.0485,-0.0484,-0.054,-0.0595,-0.0669,-0.0756,-0.0816,-0.0894,-0.0958,-0.1039,-0.1084,-0.1129,-0.1146,-0.1152,-0.1186,-0.106,-0.1056,-0.0986,-0.1014,-0.1141,-0.1025,-0.1024,-0.1023,-0.1023,0,-0.047,-0.0457,-0.0461,-0.047,-0.0479,-0.0516,-0.061,-0.067,-0.0765,-0.0827,-0.0911,-0.0954,-0.1045,-0.1077,-0.1118,-0.1144,-0.114,-0.1137,-0.113,-0.1065,-0.0996,-0.0971,-0.1016,-0.1016,-0.1017,-0.1017,-0.1018,0,-0.0458,-0.045,-0.0457,-0.0457,-0.0486,-0.0527,-0.0576,-0.0676,-0.0725,-0.0834,-0.0866,-0.0948,-0.099,-0.1006,-0.1066,-0.1088,-0.1064,-0.1048,-0.0973,-0.0967,-0.1022,-0.102,-0.1035,-0.1036,-0.1036,-0.1036,-0.1036,0,-0.0436,-0.0434,-0.0449,-0.0442,-0.0469,-0.0512,-0.0574,-0.0643,-0.0718,-0.0762,-0.0872,-0.0908,-0.0987,-0.0995,-0.1026,-0.1,-0.1009,-0.0991,-0.0942,-0.1046,-0.1048,-0.1018,-0.1017,-0.1032,-0.1033,-0.1034,-0.1034,0,-0.0415,-0.0412,-0.0411,-0.044,-0.0454,-0.0486,-0.055,-0.058,-0.0679,-0.0737,-0.0761,-0.0864,-0.0887,-0.0921,-0.0927,-0.0929,-0.09,-0.0876,-0.0979,-0.0935,-0.0828,-0.0832,-0.0757,-0.0754,-0.0752,-0.075,-0.0748,0,-0.0404,-0.0397,-0.0409,-0.0401,-0.0419,-0.0462,-0.0475,-0.0561,-0.0602,-0.0707,-0.0715,-0.0761,-0.0824,-0.0772,-0.0829,-0.0799,-0.0813,-0.0777,-0.0841,-0.0843,-0.0803,-0.081,-0.0817,-0.0745,-0.0744,-0.0743,-0.0743,0,-0.0388,-0.0395,-0.0391,-0.0367,-0.0374,-0.0387,-0.043,-0.0451,-0.055,-0.061,-0.0656,-0.068,-0.0696,-0.0722,-0.0709,-0.0702,-0.0794,-0.0753,-0.0758,-0.0819,-0.0827,-0.0791,-0.0801,-0.0735,-0.0736,-0.0737,-0.0737,0,-0.0387,-0.0375,-0.0353,-0.0336,-0.0322,-0.0323,-0.0363,-0.0395,-0.0436,-0.0557,-0.0555,-0.0624,-0.0675,-0.0667,-0.0657,-0.0647,-0.0646,-0.064,-0.0651,-0.0661,-0.0692,-0.0693,-0.0519,0,0,0,0,0,-0.0378,-0.0338,-0.0314,-0.0282,-0.0263,-0.0264,-0.0317,-0.0365,-0.0452,-0.0455,-0.0513,-0.0527,-0.0549,-0.0581,-0.055,-0.0614,-0.0646,-0.0578,-0.0645,-0.0692,-0.0701,-0.0754,0,0,0,0,0,0,-0.0351,-0.0327,-0.0298,-0.0232,-0.0203,-0.0194,-0.0235,-0.0305,-0.0327,-0.0413,-0.0421,-0.0472,-0.0491,-0.0535,-0.0525,-0.0533,-0.0563,-0.0606,-0.0604,-0.0687,-0.0695,-0.0702,-0.0759,0,0,0,0,0]},{"header":{"parameterUnit":"m.s-1","parameterCategory":2,"la1":30.2991,"la2":30.254,"lo1":-89.0895,"lo2":-89.0444,"dy":0.0017,"dx":0.0017,"nx":28,"ny":28,"refTime":"2024-05-20T03:00:00:Z","depth":"4","parameterNumber":3,"parameterNumberName":"V-component_of_CURRENTS"},"data":[0,0,0,0,0,0,0,0,0,0,0,0,0,0,0,0,0,0,0,0,0,0,0,0,0,0,0,0,0,0,0,0,0,0,0,0,0,0,0,0,0,0,0,0,0,0,0,0,0,0,0,0,0,0,0,0,0,0,-0.0425,-0.0426,0,-0.0479,-0.048,-0.048,-0.0483,-0.0483,-0.0482,-0.0481,-0.0475,-0.0475,-0.0476,0,0,0,0,0,0,0,0,0,0,0,0,0,-0.0377,-0.0378,-0.0425,-0.0426,-0.0426,-0.0479,-0.048,-0.0481,-0.0483,-0.0482,-0.0482,-0.0481,-0.0475,-0.0475,-0.0476,0,0,0,0,0,0,0,0,0,0,0,0,0,-0.0412,-0.0378,-0.0425,-0.0433,-0.0434,-0.0479,-0.048,-0.0481,-0.0484,-0.0482,-0.0481,-0.048,-0.0474,-0.0475,-0.0476,-0.0504,0,0,-0.0478,-0.0479,0,0,0,0,0,0,0,0,-0.041,-0.0414,-0.0431,-0.0433,-0.0434,-0.0472,-0.046,-0.0485,-0.0484,-0.0466,-0.0481,-0.048,-0.0468,-0.0469,-0.0485,-0.0503,-0.0503,-0.0478,-0.0479,-0.0479,-0.048,0,0,0,0,0,0,0,-0.0408,-0.0412,-0.0448,-0.0432,-0.0433,-0.0451,-0.0455,-0.0466,-0.0473,-0.0468,-0.0468,-0.0472,-0.0468,-0.0484,-0.0485,-0.0503,-0.0478,-0.0479,-0.048,-0.048,-0.0529,-0.053,0,0,0,0,0,0,-0.0397,-0.041,-0.0446,-0.045,-0.0417,-0.0453,-0.0457,-0.0462,-0.0474,-0.0475,-0.0473,-0.0472,-0.0483,-0.0484,-0.0484,-0.051,-0.0479,-0.048,-0.0481,-0.0529,-0.053,-0.053,0,0,0,0,0,0,-0.0396,-0.04,-0.0444,-0.0429,-0.0436,-0.0454,-0.0461,-0.0464,-0.0485,-0.0478,-0.0478,-0.049,-0.0483,-0.0483,-0.0496,-0.051,-0.048,-0.0481,-0.0528,-0.0529,-0.053,-0.0566,0,0,0,0,0,0,-0.0394,-0.0399,-0.0409,-0.0429,-0.0436,-0.0478,-0.0462,-0.0466,-0.0488,-0.0487,-0.0494,-0.0492,-0.0482,-0.0495,-0.0497,-0.051,-0.0482,-0.0527,-0.0528,-0.053,-0.0564,-0.0569,-0.0573,0,0,0,0,0,-0.0392,-0.0407,-0.041,-0.0414,-0.0447,-0.0479,-0.0486,-0.0495,-0.049,-0.0509,-0.0505,-0.0492,-0.0506,-0.0497,-0.0499,-0.0513,-0.0526,-0.0528,-0.053,-0.0562,-0.0568,-0.0572,0,0,0,0,0,0,-0.0395,-0.0409,-0.0412,-0.0432,-0.0457,-0.0479,-0.0498,-0.0505,-0.0522,-0.0518,-0.0507,-0.0506,-0.0523,-0.0516,-0.0506,-0.0531,-0.0512,-0.0515,-0.0536,-0.0542,-0.0546,-0.0525,-0.0482,0,0,0,0,0,-0.04,-0.0413,-0.0433,-0.0452,-0.0463,-0.0484,-0.0501,-0.051,-0.0522,-0.0529,-0.0531,-0.053,-0.0534,-0.0535,-0.0541,-0.0559,-0.0506,-0.0568,-0.0572,-0.0576,-0.0561,-0.0492,-0.0488,-0.0537,-0.0537,-0.0537,0,0,-0.0404,-0.0417,-0.0422,-0.0453,-0.0472,-0.0495,-0.0492,-0.0522,-0.0534,-0.0525,-0.0544,-0.055,-0.0544,-0.056,-0.0567,-0.0554,-0.0535,-0.0578,-0.0581,-0.0564,-0.0493,-0.0488,-0.0484,-0.0538,-0.0538,-0.0537,0,0,-0.0419,-0.0433,-0.0448,-0.0472,-0.0504,-0.0515,-0.0525,-0.0553,-0.0558,-0.0581,-0.0573,-0.0582,-0.0597,-0.059,-0.0588,-0.0619,-0.0562,-0.063,-0.0632,-0.0567,-0.0561,-0.0556,-0.0479,-0.0466,-0.0629,-0.0629,-0.0629,0,-0.0426,-0.0448,-0.0461,-0.0488,-0.0509,-0.0522,-0.055,-0.0559,-0.0587,-0.0585,-0.0587,-0.0604,-0.0604,-0.0608,-0.0618,-0.0627,-0.0573,-0.0614,-0.0569,-0.0563,-0.0556,-0.0479,-0.0464,-0.0631,-0.0631,-0.063,-0.063,0,-0.0449,-0.0476,-0.0491,-0.0521,-0.0547,-0.0577,-0.0589,-0.06,-0.0606,-0.0611,-0.0624,-0.063,-0.0629,-0.0643,-0.0639,-0.0613,-0.0583,-0.0583,-0.055,-0.0553,-0.0472,-0.0456,-0.0634,-0.0633,-0.0632,-0.0632,0,0,-0.0441,-0.0495,-0.0502,-0.0525,-0.057,-0.059,-0.0602,-0.0616,-0.0613,-0.0633,-0.0627,-0.0648,-0.0646,-0.0643,-0.0648,-0.0602,-0.0519,-0.0574,-0.057,-0.0487,-0.0354,-0.0318,-0.0297,-0.0506,-0.0504,-0.0502,-0.0313,0,-0.0459,-0.0506,-0.0533,-0.0579,-0.0604,-0.0621,-0.0631,-0.0641,-0.0644,-0.0637,-0.0631,-0.0638,-0.0646,-0.0653,-0.0607,-0.0547,-0.0479,-0.0569,-0.0373,-0.0366,-0.0325,-0.0279,-0.0494,-0.0301,-0.0297,-0.0295,-0.0293,0,-0.0474,-0.0503,-0.0553,-0.0599,-0.0611,-0.0642,-0.0654,-0.0667,-0.0652,-0.0654,-0.065,-0.0638,-0.0597,-0.06,-0.0463,-0.0517,-0.0428,-0.0374,-0.0365,-0.0303,-0.0301,-0.0299,-0.0263,-0.0266,-0.0268,-0.027,-0.0272,0,-0.0459,-0.0519,-0.0556,-0.0578,-0.0627,-0.0647,-0.067,-0.0675,-0.0673,-0.0666,-0.0648,-0.0612,-0.057,-0.0477,-0.036,-0.0401,-0.0179,-0.022,-0.0098,-0.0094,-0.0167,-0.0175,-0.0088,-0.0088,-0.0088,-0.0089,-0.0089,0,-0.0469,-0.0503,-0.0554,-0.0581,-0.0613,-0.0652,-0.0678,-0.0689,-0.0688,-0.0665,-0.0658,-0.0608,-0.053,-0.0401,-0.0319,-0.0139,-0.0132,-0.0068,-0.0035,-0.0189,-0.0201,-0.0155,-0.0165,-0.0082,-0.0083,-0.0085,-0.0086,0,-0.0462,-0.0497,-0.0541,-0.0596,-0.0616,-0.0642,-0.0691,-0.0688,-0.0695,-0.0657,-0.0648,-0.0565,-0.0403,-0.0295,-0.0115,-0.0063,0.0078,0.0146,0.0008,0.0026,0.0106,0.0091,0.0287,0.029,0.0292,0.0295,0.0296,0,-0.0465,-0.0486,-0.0548,-0.0569,-0.0607,-0.0648,-0.0662,-0.0695,-0.0684,-0.0613,-0.0573,-0.0423,-0.0349,-0.0048,0.003,0.0216,0.0225,0.0293,0.0161,0.0136,0.0149,0.013,0.0112,0.03,0.0301,0.0302,0.0302,0,-0.0466,-0.049,-0.0525,-0.056,-0.0593,-0.062,-0.0647,-0.0631,-0.0624,-0.0614,-0.0463,-0.034,-0.0139,0.0007,0.0172,0.0284,0.0227,0.0318,0.0312,0.0188,0.0154,0.016,0.014,0.0311,0.031,0.0309,0.0309,0,-0.0466,-0.0483,-0.052,-0.0549,-0.058,-0.0587,-0.0605,-0.0562,-0.0545,-0.0466,-0.0398,-0.0231,-0.0138,0.0051,0.0194,0.0315,0.0304,0.0291,0.0286,0.0277,0.0188,0.0138,0.0351,0,0,0,0,0,-0.0461,-0.0478,-0.0503,-0.054,-0.0562,-0.0585,-0.0583,-0.0587,-0.0557,-0.0434,-0.042,-0.0236,-0.0018,0.0069,0.0204,0.0199,0.0297,0.0353,0.0273,0.036,0.035,0.0247,0,0,0,0,0,0,-0.0463,-0.0489,-0.0497,-0.0516,-0.0538,-0.0564,-0.0563,-0.0544,-0.0473,-0.0421,-0.029,-0.0233,-0.0013,-0.0086,0.0199,0.0232,0.0191,0.0452,0.0454,0.0366,0.0357,0.0349,0.0239,0,0,0,0,0]}]]